[[{"header":{"parameterUnit":"m.s-1","parameterCategory":1,"la1":30.2991,"la2":30.254,"lo1":-89.0895,"lo2":-89.0444,"dy":0.0017,"dx":0.0017,"nx":28,"ny":28,"refTime":"2024-08-23T09:00:00:Z","depth":0,"parameterNumber":2,"parameterNumberName":"U-component_of_WINDS"},"data":[0,0,0,0,0,0,0,0,0,0,0,0,0,0,0,0,0,0,0,0,0,0,0,0,0,0,0,0,0,0,0,0,0,0,0,0,0,0,0,0,0,0,0,0,0,0,0,0,0,0,0,0,0,0,0,0,0,0,-7.0655,-7.0656,0,-7.0766,-7.0767,-7.0768,-7.0675,-7.0671,-7.0667,-7.0663,-7.0777,-7.0783,-7.079,0,0,0,0,0,0,0,0,0,0,0,0,0,-7.0365,-7.0371,-7.0655,-7.0657,-7.0658,-7.0765,-7.0767,-7.0768,-7.0675,-7.0671,-7.0666,-7.0662,-7.0774,-7.0782,-7.079,0,0,0,0,0,0,0,0,0,0,0,0,0,-7.0485,-7.0373,-7.0655,-7.0624,-7.0623,-7.0765,-7.0767,-7.0769,-7.0676,-7.0671,-7.0665,-7.0659,-7.0772,-7.0781,-7.0791,-7.0969,0,0,-7.0822,-7.0826,0,0,0,0,0,0,0,0,-7.0478,-7.0496,-7.0628,-7.0627,-7.0625,-7.07,-7.0706,-7.0836,-7.0678,-7.0656,-7.0663,-7.0656,-7.0756,-7.0767,-7.08,-7.0975,-7.098,-7.0823,-7.0829,-7.0833,-7.0836,0,0,0,0,0,0,0,-7.047,-7.049,-7.0699,-7.063,-7.0628,-7.0606,-7.0616,-7.073,-7.0737,-7.0658,-7.0651,-7.0665,-7.0754,-7.0791,-7.0802,-7.0981,-7.0822,-7.0831,-7.0837,-7.0841,-7.131,-7.1316,0,0,0,0,0,0,-7.0465,-7.0484,-7.0695,-7.0702,-7.0536,-7.0616,-7.0627,-7.0682,-7.0736,-7.0738,-7.067,-7.0661,-7.0777,-7.0791,-7.0806,-7.1019,-7.0833,-7.0842,-7.0848,-7.1303,-7.1311,-7.1318,0,0,0,0,0,0,-7.0459,-7.0484,-7.0691,-7.0591,-7.0616,-7.0627,-7.0689,-7.0687,-7.0724,-7.0745,-7.0746,-7.0706,-7.0773,-7.0792,-7.093,-7.1022,-7.0847,-7.0856,-7.1296,-7.1306,-7.1315,-7.1447,0,0,0,0,0,0,-7.0451,-7.0483,-7.055,-7.0594,-7.0622,-7.0813,-7.0695,-7.0694,-7.0741,-7.073,-7.078,-7.0782,-7.077,-7.0916,-7.094,-7.1032,-7.0863,-7.1287,-7.13,-7.1311,-7.1434,-7.146,-7.1482,0,0,0,0,0,-7.0441,-7.0583,-7.0554,-7.058,-7.0706,-7.0818,-7.0834,-7.0817,-7.0749,-7.0817,-7.0832,-7.0781,-7.1008,-7.0931,-7.0957,-7.1054,-7.1281,-7.1296,-7.1311,-7.1424,-7.1455,-7.1481,0,0,0,0,0,0,-7.0549,-7.0588,-7.0556,-7.0716,-7.0765,-7.0802,-7.0887,-7.085,-7.0919,-7.0905,-7.0881,-7.0893,-7.1039,-7.106,-7.0973,-7.123,-7.1134,-7.1155,-7.1211,-7.1241,-7.1264,-7.1256,-7.0872,0,0,0,0,0,-7.0591,-7.0679,-7.0708,-7.0847,-7.0873,-7.0877,-7.0925,-7.0907,-7.0956,-7.0976,-7.1,-7.105,-7.1133,-7.1188,-7.1265,-7.1437,-7.1448,-7.1517,-7.1541,-7.156,-7.1578,-7.1673,-7.1705,-7.1366,-7.1366,-7.1365,0,0,-7.068,-7.0712,-7.0769,-7.0869,-7.0905,-7.0997,-7.0894,-7.0995,-7.1064,-7.0992,-7.1124,-7.1144,-7.1198,-7.1354,-7.1424,-7.1377,-7.1675,-7.1579,-7.1594,-7.1602,-7.1691,-7.1723,-7.1752,-7.1376,-7.1374,-7.1372,0,0,-7.0888,-7.0921,-7.1041,-7.1079,-7.1134,-7.1136,-7.1165,-7.1209,-7.122,-7.1352,-7.1301,-7.1382,-7.1525,-7.1566,-7.1606,-7.1833,-7.179,-7.1859,-7.1983,-7.2076,-7.2102,-7.2126,-7.2208,-7.2238,-7.1877,-7.1878,-7.1878,0,-7.0991,-7.1128,-7.1107,-7.1213,-7.1259,-7.1199,-7.1321,-7.1359,-7.1437,-7.1471,-7.1416,-7.1596,-7.1628,-7.1794,-7.185,-7.1884,-7.1917,-7.1853,-7.21,-7.2123,-7.2145,-7.2223,-7.2254,-7.1886,-7.1885,-7.1884,-7.1883,0,-7.1252,-7.1348,-7.1438,-7.1516,-7.1572,-7.1686,-7.1683,-7.1743,-7.1721,-7.173,-7.1866,-7.1903,-7.1988,-7.2026,-7.2005,-7.219,-7.2159,-7.2103,-7.2006,-7.2186,-7.2259,-7.2289,-7.1897,-7.1894,-7.1892,-7.189,0,0,-7.153,-7.1597,-7.163,-7.1666,-7.1724,-7.1797,-7.1909,-7.1992,-7.2045,-7.2101,-7.2195,-7.2318,-7.2268,-7.2313,-7.2297,-7.2378,-7.2558,-7.2312,-7.2313,-7.2357,-7.2766,-7.2808,-7.2843,-7.253,-7.2535,-7.254,-7.2761,0,-7.1741,-7.1935,-7.1921,-7.2104,-7.2193,-7.2139,-7.2236,-7.2283,-7.2294,-7.2372,-7.2384,-7.2472,-7.2398,-7.2425,-7.2503,-7.2519,-7.264,-7.2503,-7.2617,-7.2622,-7.2605,-7.2881,-7.2925,-7.3132,-7.279,-7.2794,-7.2798,0,-7.2013,-7.2081,-7.2273,-7.232,-7.2357,-7.2444,-7.252,-7.2595,-7.2648,-7.265,-7.2703,-7.2674,-7.2788,-7.2688,-7.2845,-7.2753,-7.2799,-7.2815,-7.2822,-7.2832,-7.2721,-7.2899,-7.3198,-7.3229,-7.2843,-7.2839,-7.2836,0,-7.2198,-7.2337,-7.247,-7.2502,-7.2559,-7.2623,-7.265,-7.2697,-7.2748,-7.2815,-7.2849,-7.2928,-7.2972,-7.3035,-7.3029,-7.2957,-7.3189,-7.3089,-7.3195,-7.3196,-7.3246,-7.3243,-7.3558,-7.3276,-7.3276,-7.3275,-7.3274,0,-7.2436,-7.2556,-7.2554,-7.2636,-7.277,-7.2753,-7.2886,-7.2905,-7.2948,-7.3034,-7.2992,-7.3073,-7.306,-7.3142,-7.3139,-7.327,-7.329,-7.3296,-7.3294,-7.33,-7.33,-7.333,-7.3315,-7.3283,-7.3281,-7.328,-7.3278,0,-7.2664,-7.2667,-7.281,-7.2853,-7.2867,-7.2964,-7.3001,-7.308,-7.3088,-7.3198,-7.3222,-7.3236,-7.3331,-7.3331,-7.3439,-7.3437,-7.3598,-7.3579,-7.3581,-7.3577,-7.3684,-7.3674,-7.4029,-7.4075,-7.3763,-7.3766,-7.3769,0,-7.2815,-7.2907,-7.2961,-7.3016,-7.3047,-7.3135,-7.3188,-7.3176,-7.3233,-7.3302,-7.3372,-7.3463,-7.3535,-7.3689,-7.3709,-7.3793,-7.3775,-7.3894,-7.3787,-7.3792,-7.3778,-7.3773,-7.3783,-7.3915,-7.3918,-7.3921,-7.3923,0,-7.3084,-7.3082,-7.316,-7.324,-7.3305,-7.3367,-7.3424,-7.3472,-7.3466,-7.3533,-7.3629,-7.3685,-7.3797,-7.3888,-7.3969,-7.3997,-7.3961,-7.3957,-7.3986,-7.3994,-7.3991,-7.3995,-7.3638,-7.3949,-7.3946,-7.3944,-7.3943,-7.3942,-7.3279,-7.3358,-7.341,-7.3499,-7.3541,-7.3596,-7.3672,-7.3691,-7.3772,-7.3861,-7.385,-7.3958,-7.4011,-7.4115,-7.4151,-7.4236,-7.4195,-7.4237,-7.4248,-7.4258,-7.4271,-7.3978,-7.4251,-7.425,-7.425,-7.4249,-7.4248,0,-7.3546,-7.3577,-7.3659,-7.3741,-7.3812,-7.3772,-7.3834,-7.3896,-7.3992,-7.4044,-7.4116,-7.4229,-7.4318,-7.4346,-7.4432,-7.4495,-7.4481,-7.4519,-7.4514,-7.4521,-7.4302,-7.4269,-7.4529,-7.4529,-7.4529,-7.4529,-7.4529,-7.4529,-7.3693,-7.3826,-7.3831,-7.3985,-7.4014,-7.412,-7.416,-7.4211,-7.4253,-7.438,-7.4454,-7.4472,-7.4515,-7.4605,-7.4686,-7.4692,-7.4726,-7.4771,-7.477,-7.4565,-7.4537,-7.451,-7.4478,-7.4778,-7.4779,-7.4982,-7.4984,-7.4986]},{"header":{"parameterUnit":"m.s-1","parameterCategory":1,"la1":30.2991,"la2":30.254,"lo1":-89.0895,"lo2":-89.0444,"dy":0.0017,"dx":0.0017,"nx":28,"ny":28,"refTime":"2024-08-23T09:00:00:Z","depth":0,"parameterNumber":3,"parameterNumberName":"V-component_of_WINDS"},"data":[0,0,0,0,0,0,0,0,0,0,0,0,0,0,0,0,0,0,0,0,0,0,0,0,0,0,0,0,0,0,0,0,0,0,0,0,0,0,0,0,0,0,0,0,0,0,0,0,0,0,0,0,0,0,0,0,0,0,-2.0594,-2.0594,0,-2.062,-2.0621,-2.0621,-2.0575,-2.0573,-2.0572,-2.057,-2.06,-2.0602,-2.0604,0,0,0,0,0,0,0,0,0,0,0,0,0,-2.0504,-2.0506,-2.0594,-2.0594,-2.0594,-2.062,-2.0621,-2.0621,-2.0575,-2.0573,-2.0571,-2.0569,-2.0599,-2.0602,-2.0604,0,0,0,0,0,0,0,0,0,0,0,0,0,-2.0538,-2.0506,-2.0594,-2.0574,-2.0573,-2.062,-2.0621,-2.0621,-2.0575,-2.0573,-2.0571,-2.0568,-2.0598,-2.0601,-2.0605,-2.0673,0,0,-2.0615,-2.0616,0,0,0,0,0,0,0,0,-2.0536,-2.0541,-2.0577,-2.0576,-2.0574,-2.0592,-2.06,-2.0638,-2.0576,-2.0575,-2.057,-2.0567,-2.0599,-2.0602,-2.0612,-2.0674,-2.0675,-2.0615,-2.0617,-2.0619,-2.062,0,0,0,0,0,0,0,-2.0534,-2.054,-2.0604,-2.0578,-2.0576,-2.0565,-2.0567,-2.0607,-2.06,-2.0575,-2.0571,-2.0575,-2.0598,-2.0609,-2.0613,-2.0676,-2.0615,-2.0618,-2.062,-2.0622,-2.0793,-2.0795,0,0,0,0,0,0,-2.0534,-2.0538,-2.0603,-2.0605,-2.0549,-2.0568,-2.0571,-2.0589,-2.0599,-2.0598,-2.0577,-2.0573,-2.0605,-2.0609,-2.0614,-2.0693,-2.0619,-2.0622,-2.0624,-2.079,-2.0793,-2.0796,0,0,0,0,0,0,-2.0532,-2.054,-2.0602,-2.0571,-2.0578,-2.0572,-2.0593,-2.059,-2.0602,-2.0601,-2.06,-2.059,-2.0603,-2.0609,-2.0658,-2.0694,-2.0623,-2.0626,-2.0787,-2.0791,-2.0795,-2.0854,0,0,0,0,0,0,-2.0529,-2.0539,-2.0565,-2.0572,-2.058,-2.0646,-2.0595,-2.0593,-2.0607,-2.0602,-2.0613,-2.0612,-2.0602,-2.0653,-2.0661,-2.0697,-2.0629,-2.0784,-2.0789,-2.0794,-2.0849,-2.0859,-2.0868,0,0,0,0,0,-2.0526,-2.0581,-2.0567,-2.0575,-2.0612,-2.0648,-2.0653,-2.0639,-2.061,-2.0636,-2.0635,-2.0612,-2.0688,-2.0658,-2.0667,-2.0705,-2.0782,-2.0788,-2.0793,-2.0844,-2.0857,-2.0868,0,0,0,0,0,0,-2.0581,-2.0582,-2.0566,-2.0625,-2.0637,-2.064,-2.0673,-2.0653,-2.0674,-2.0669,-2.0651,-2.0654,-2.0706,-2.071,-2.0677,-2.077,-2.073,-2.0738,-2.0766,-2.0778,-2.0788,-2.0786,-2.0632,0,0,0,0,0,-2.0599,-2.0628,-2.0628,-2.068,-2.0687,-2.0679,-2.0694,-2.0682,-2.0694,-2.0699,-2.0702,-2.0715,-2.0742,-2.076,-2.0785,-2.0848,-2.085,-2.0879,-2.0888,-2.0896,-2.0904,-2.0937,-2.095,-2.0815,-2.0815,-2.0815,0,0,-2.0638,-2.0643,-2.0663,-2.0691,-2.0699,-2.073,-2.0683,-2.0718,-2.0741,-2.0705,-2.0751,-2.0753,-2.0767,-2.0823,-2.0848,-2.0828,-2.0941,-2.0904,-2.091,-2.0913,-2.0944,-2.0957,-2.0968,-2.0819,-2.0818,-2.0817,0,0,-2.0726,-2.0732,-2.0775,-2.0784,-2.0796,-2.079,-2.08,-2.0807,-2.0806,-2.0852,-2.0825,-2.0852,-2.0899,-2.0909,-2.092,-2.1009,-2.0989,-2.1018,-2.107,-2.1102,-2.1113,-2.1122,-2.1154,-2.1166,-2.1025,-2.1025,-2.1025,0,-2.0773,-2.0818,-2.08,-2.0837,-2.085,-2.0817,-2.0861,-2.087,-2.089,-2.09,-2.0877,-2.0934,-2.094,-2.0998,-2.102,-2.103,-2.1042,-2.1017,-2.1113,-2.1122,-2.113,-2.1161,-2.1173,-2.1029,-2.1028,-2.1028,-2.1028,0,-2.0876,-2.0907,-2.0941,-2.096,-2.0977,-2.1017,-2.1005,-2.1024,-2.101,-2.1007,-2.1053,-2.106,-2.1085,-2.1097,-2.1085,-2.1153,-2.1141,-2.1115,-2.1075,-2.1147,-2.1175,-2.1187,-2.1034,-2.1032,-2.1031,-2.103,0,0,-2.1,-2.1007,-2.102,-2.1027,-2.1037,-2.1061,-2.1099,-2.1123,-2.114,-2.1154,-2.1186,-2.1225,-2.1201,-2.1214,-2.1202,-2.123,-2.13,-2.1201,-2.1201,-2.122,-2.1377,-2.1396,-2.141,-2.1286,-2.1288,-2.129,-2.1376,0,-2.1087,-2.1152,-2.1136,-2.1201,-2.123,-2.1198,-2.1231,-2.1241,-2.1238,-2.1262,-2.1259,-2.1287,-2.1253,-2.1261,-2.1288,-2.1286,-2.1332,-2.128,-2.1316,-2.1317,-2.1314,-2.1424,-2.1446,-2.1526,-2.1386,-2.1388,-2.139,0,-2.1197,-2.1214,-2.1282,-2.1286,-2.1297,-2.1327,-2.1347,-2.137,-2.138,-2.1376,-2.139,-2.1371,-2.1409,-2.1367,-2.1419,-2.1384,-2.1397,-2.1398,-2.1401,-2.1405,-2.1359,-2.1432,-2.1552,-2.1564,-2.1407,-2.1405,-2.1404,0,-2.1281,-2.1321,-2.1366,-2.1374,-2.138,-2.1402,-2.1405,-2.1413,-2.1427,-2.1444,-2.1454,-2.1475,-2.1488,-2.1505,-2.1493,-2.1463,-2.1546,-2.1504,-2.1545,-2.1545,-2.1565,-2.1564,-2.1689,-2.1572,-2.1572,-2.1572,-2.1571,0,-2.138,-2.1423,-2.1404,-2.1432,-2.1478,-2.146,-2.1506,-2.1506,-2.1513,-2.154,-2.1514,-2.154,-2.1522,-2.1547,-2.1538,-2.1582,-2.1588,-2.1586,-2.1583,-2.1589,-2.1589,-2.1598,-2.1593,-2.1575,-2.1574,-2.1574,-2.1573,0,-2.1482,-2.1471,-2.1519,-2.152,-2.1521,-2.1555,-2.1556,-2.1582,-2.1576,-2.1611,-2.1619,-2.161,-2.1638,-2.1627,-2.1657,-2.1651,-2.1707,-2.1697,-2.1704,-2.1702,-2.1743,-2.174,-2.188,-2.1897,-2.1768,-2.177,-2.1771,0,-2.1547,-2.1578,-2.1582,-2.1598,-2.1604,-2.163,-2.1644,-2.1627,-2.1643,-2.1656,-2.168,-2.1705,-2.1725,-2.177,-2.1767,-2.179,-2.178,-2.1828,-2.1784,-2.1788,-2.1781,-2.178,-2.1783,-2.1837,-2.1838,-2.184,-2.1841,0,-2.1662,-2.1655,-2.1676,-2.1696,-2.1713,-2.1728,-2.174,-2.1755,-2.1738,-2.1757,-2.1785,-2.18,-2.1829,-2.1855,-2.1874,-2.1878,-2.1857,-2.1854,-2.1865,-2.1872,-2.1875,-2.1874,-2.1729,-2.1851,-2.185,-2.185,-2.1849,-2.1849,-2.1748,-2.1774,-2.1781,-2.1805,-2.1812,-2.1824,-2.1848,-2.1845,-2.1868,-2.189,-2.1878,-2.191,-2.1918,-2.1942,-2.1949,-2.1974,-2.1955,-2.1971,-2.1975,-2.1979,-2.1985,-2.187,-2.1977,-2.1977,-2.1976,-2.1976,-2.1976,0,-2.1862,-2.1864,-2.1887,-2.1904,-2.1924,-2.19,-2.1912,-2.193,-2.1959,-2.1968,-2.1987,-2.2018,-2.2042,-2.204,-2.2062,-2.2083,-2.2073,-2.2089,-2.2088,-2.2089,-2.2,-2.1988,-2.2096,-2.2096,-2.2096,-2.2096,-2.2096,-2.2096,-2.1924,-2.1967,-2.196,-2.2007,-2.2009,-2.2039,-2.2048,-2.2059,-2.2066,-2.2102,-2.2121,-2.2119,-2.2124,-2.2146,-2.2167,-2.2166,-2.2176,-2.2195,-2.2191,-2.2107,-2.2096,-2.2084,-2.2073,-2.2197,-2.2197,-2.2278,-2.2279,-2.2279]}]]